,,PA_Meas_PMT16A,,PR_Meas_QMR101_102,,RH_Meas_QMH101,,SR_Meas_QMS101,,TA_Meas_QMH101,,GenWind,,GenWind,
time,status,PA,status,PR,status,RH,status,SR,status,TA,status,DirAvg,status,SpdAvg,
2016-01-16, 07:26:04,VALID,917.614,VALID,0,VALID,103.198,VALID,80.9032,VALID,19.9758,VALID,9,VALID,0,
2016-01-16, 07:27:04,VALID,917.643,VALID,0,VALID,103.229,VALID,86.3827,VALID,20.0358,VALID,9,VALID,0,
2016-01-16, 07:28:04,VALID,917.66,VALID,0,VALID,103.191,VALID,94.7631,VALID,20.0538,VALID,9,VALID,0,
2016-01-16, 07:29:04,VALID,917.669,VALID,0,VALID,103.213,VALID,109.483,VALID,20.0553,VALID,21,VALID,0,
2016-01-16, 07:30:04,VALID,917.689,VALID,0,VALID,103.229,VALID,123.128,VALID,20.0163,VALID,359,VALID,0,
2016-01-16, 07:31:04,VALID,917.71,VALID,0,VALID,103.198,VALID,124.847,VALID,20.0538,VALID,359,VALID,0,
2016-01-16, 07:32:04,VALID,917.76,VALID,0,VALID,103.191,VALID,116.251,VALID,20.1123,VALID,355,VALID,0,
2016-01-16, 07:33:04,VALID,917.732,VALID,0,VALID,103.213,VALID,117.111,VALID,20.0538,VALID,321,VALID,0,
2016-01-16, 07:34:04,VALID,917.752,VALID,0,VALID,103.221,VALID,120.979,VALID,20.0148,VALID,321,VALID,0,
2016-01-16, 07:35:04,VALID,917.756,VALID,0,VALID,103.191,VALID,136.235,VALID,20.1334,VALID,335,VALID,0,
2016-01-16, 07:36:04,VALID,917.772,VALID,0,VALID,103.183,VALID,135.054,VALID,20.1513,VALID,356,VALID,0,
2016-01-16, 07:37:04,VALID,917.72,VALID,0,VALID,103.183,VALID,111.094,VALID,20.1903,VALID,12,VALID,0,
2016-01-16, 07:43:04,VALID,917.835,VALID,0,VALID,103.221,VALID,126.566,VALID,20.1318,VALID,272,VALID,0,
2016-01-16, 07:44:04,VALID,917.853,VALID,0,VALID,103.236,VALID,141.285,VALID,20.1529,VALID,272,VALID,0,
2016-01-16, 07:45:04,VALID,917.848,VALID,0,VALID,103.267,VALID,144.186,VALID,20.0944,VALID,272,VALID,0,
2016-01-16, 07:46:04,VALID,917.881,VALID,0,VALID,103.274,VALID,146.979,VALID,20.0733,VALID,272,VALID,0,
2016-01-16, 07:47:04,VALID,917.876,VALID,0,VALID,103.252,VALID,163.096,VALID,20.0944,VALID,272,VALID,0,
2016-01-16, 07:48:04,VALID,917.889,VALID,0,VALID,103.252,VALID,158.798,VALID,20.0358,VALID,271,VALID,0,
2016-01-16, 07:49:04,VALID,917.881,VALID,0,VALID,103.274,VALID,168.038,VALID,20.0148,VALID,271,VALID,0,
2016-01-16, 07:50:04,VALID,917.928,VALID,0,VALID,103.213,VALID,255.065,VALID,20.1529,VALID,271,VALID,0,
2016-01-16, 07:51:04,VALID,917.927,VALID,0,VALID,103.198,VALID,295.141,VALID,20.1903,VALID,271,VALID,0,
2016-01-16, 07:52:04,VALID,917.957,VALID,0,VALID,103.152,VALID,297.075,VALID,20.3089,VALID,271,VALID,0,
2016-01-16, 07:53:04,VALID,917.971,VALID,0,VALID,103.137,VALID,312.546,VALID,20.4064,VALID,271,VALID,0,
2016-01-16, 07:54:04,VALID,918.002,VALID,0,VALID,103.137,VALID,240.883,VALID,20.4259,VALID,271,VALID,0,
2016-01-16, 07:55:04,VALID,918.018,VALID,0,VALID,103.191,VALID,282.033,VALID,20.2684,VALID,302,VALID,0,
2016-01-16, 07:56:04,VALID,918.047,VALID,0,VALID,103.206,VALID,191.568,VALID,20.2879,VALID,252,VALID,0,
2016-01-16, 07:57:04,VALID,918.057,VALID,0,VALID,103.213,VALID,232.503,VALID,20.2489,VALID,250,VALID,0,
2016-01-16, 07:58:04,VALID,918.085,VALID,0,VALID,103.175,VALID,250.768,VALID,20.3854,VALID,250,VALID,0,
2016-01-16, 07:59:04,VALID,918.1,VALID,0,VALID,103.213,VALID,175.989,VALID,20.3464,VALID,250,VALID,0,
2016-01-16, 08:00:04,VALID,918.143,VALID,0,VALID,103.221,VALID,145.368,VALID,20.3659,VALID,250,VALID,0,
2016-01-16, 08:01:04,VALID,918.159,VALID,0,VALID,103.213,VALID,139.673,VALID,20.3659,VALID,250,VALID,0,
2016-01-16, 08:02:04,VALID,918.172,VALID,0,VALID,103.229,VALID,144.186,VALID,20.3643,VALID,250,VALID,0,
2016-01-16, 08:03:04,VALID,918.175,VALID,0,VALID,103.191,VALID,155.79,VALID,20.4439,VALID,250,VALID,0,
2016-01-16, 08:04:04,VALID,918.171,VALID,0,VALID,103.206,VALID,175.237,VALID,20.4228,VALID,250,VALID,0,
2016-01-16, 08:05:04,VALID,918.181,VALID,0,VALID,103.213,VALID,185.443,VALID,20.4439,VALID,250,VALID,0,
2016-01-16, 08:06:04,VALID,918.19,VALID,0,VALID,103.229,VALID,220.899,VALID,20.3823,VALID,250,VALID,0,
2016-01-16, 08:07:04,VALID,918.21,VALID,0,VALID,103.213,VALID,262.049,VALID,20.4829,VALID,250,VALID,0,
2016-01-16, 08:08:04,VALID,918.196,VALID,0,VALID,103.206,VALID,298.364,VALID,20.5219,VALID,250,VALID,0,
2016-01-16, 08:09:04,VALID,918.231,VALID,0,VALID,103.206,VALID,270.752,VALID,20.4813,VALID,250,VALID,0,
2016-01-16, 08:10:04,VALID,918.209,VALID,0,VALID,103.175,VALID,286.653,VALID,20.5789,VALID,250,VALID,0,
2016-01-16, 08:11:04,VALID,918.241,VALID,0,VALID,103.191,VALID,289.339,VALID,20.5594,VALID,250,VALID,0,
2016-01-16, 08:12:04,VALID,918.21,VALID,0,VALID,103.198,VALID,376.366,VALID,20.5789,VALID,275,VALID,0,
2016-01-16, 08:13:04,VALID,918.248,VALID,0,VALID,103.183,VALID,419.45,VALID,20.639,VALID,275,VALID,0,
2016-01-16, 08:14:04,VALID,918.282,VALID,0,VALID,103.145,VALID,401.508,VALID,20.7739,VALID,273,VALID,0,
2016-01-16, 08:15:04,VALID,918.303,VALID,0,VALID,103.122,VALID,328.77,VALID,20.891,VALID,283,VALID,0,
2016-01-16, 08:16:04,VALID,918.308,VALID,0,VALID,103.198,VALID,260.545,VALID,20.7333,VALID,251,VALID,0,
2016-01-16, 08:17:04,VALID,918.317,VALID,0,VALID,103.16,VALID,237.015,VALID,20.8113,VALID,259,VALID,0,
2016-01-16, 08:18:04,VALID,918.322,VALID,0,VALID,103.213,VALID,235.404,VALID,20.8129,VALID,286,VALID,0,
2016-01-16, 08:19:04,VALID,918.332,VALID,0,VALID,103.198,VALID,240.991,VALID,20.8129,VALID,229,VALID,0,
2016-01-16, 08:20:04,VALID,918.322,VALID,0,VALID,103.244,VALID,257.536,VALID,20.7528,VALID,254,VALID,0,
2016-01-16, 08:21:04,VALID,918.341,VALID,0,VALID,103.274,VALID,280.636,VALID,20.7544,VALID,237,VALID,0.203516,
2016-01-16, 08:22:04,VALID,918.37,VALID,0,VALID,103.29,VALID,280.099,VALID,20.7739,VALID,258,VALID,0,
2016-01-16, 08:23:04,VALID,918.375,VALID,0,VALID,103.267,VALID,250.016,VALID,20.8113,VALID,258,VALID,0,
2016-01-16, 08:24:04,VALID,918.397,VALID,0,VALID,103.236,VALID,233.47,VALID,20.8894,VALID,258,VALID,0,
2016-01-16, 08:25:04,VALID,918.424,VALID,0,VALID,103.297,VALID,224.982,VALID,20.7723,VALID,247,VALID,0,
2016-01-16, 08:26:04,VALID,918.433,VALID,0,VALID,103.32,VALID,229.494,VALID,20.8113,VALID,269,VALID,0,
2016-01-16, 08:27:04,VALID,918.449,VALID,0,VALID,103.381,VALID,239.701,VALID,20.7154,VALID,276,VALID,0,
2016-01-16, 08:28:04,VALID,918.431,VALID,0,VALID,103.465,VALID,258.181,VALID,20.639,VALID,276,VALID,0,
2016-01-16, 08:29:04,VALID,918.409,VALID,0,VALID,103.45,VALID,278.38,VALID,20.5984,VALID,296,VALID,0,
2016-01-16, 08:30:04,VALID,918.418,VALID,0,VALID,103.442,VALID,265.917,VALID,20.6179,VALID,298,VALID,0,
2016-01-16, 08:31:04,VALID,918.421,VALID,0,VALID,103.343,VALID,247.33,VALID,20.7739,VALID,298,VALID,0,
2016-01-16, 08:32:04,VALID,918.429,VALID,0,VALID,103.328,VALID,230.676,VALID,20.9105,VALID,303,VALID,0,
2016-01-16, 08:33:04,VALID,918.407,VALID,0,VALID,103.297,VALID,220.469,VALID,20.969,VALID,300,VALID,0,
2016-01-16, 08:34:04,VALID,918.402,VALID,0,VALID,103.366,VALID,225.304,VALID,20.93,VALID,300,VALID,0,
2016-01-16, 08:35:04,VALID,918.42,VALID,0,VALID,103.419,VALID,234.651,VALID,20.8714,VALID,300,VALID,0,
2016-01-16, 08:36:04,VALID,918.436,VALID,0,VALID,103.419,VALID,258.611,VALID,20.9495,VALID,305,VALID,0,
2016-01-16, 08:37:04,VALID,918.47,VALID,0,VALID,103.396,VALID,245.396,VALID,21.008,VALID,309,VALID,0,
2016-01-16, 08:38:04,VALID,918.49,VALID,0,VALID,103.495,VALID,240.991,VALID,20.8894,VALID,312,VALID,0,
2016-01-16, 08:39:04,VALID,918.472,VALID,0,VALID,103.579,VALID,235.189,VALID,20.8714,VALID,312,VALID,0,
2016-01-16, 08:40:04,VALID,918.485,VALID,0,VALID,103.518,VALID,229.387,VALID,20.9316,VALID,311,VALID,0,
2016-01-16, 08:41:04,VALID,918.501,VALID,0,VALID,103.473,VALID,226.379,VALID,20.9674,VALID,312,VALID,0,
2016-01-16, 08:42:04,VALID,918.531,VALID,0,VALID,103.518,VALID,225.841,VALID,21.0064,VALID,312,VALID,0,
2016-01-16, 08:43:04,VALID,918.532,VALID,0,VALID,103.511,VALID,227.99,VALID,21.0844,VALID,307,VALID,0,
2016-01-16, 08:44:04,VALID,918.503,VALID,0,VALID,103.556,VALID,227.883,VALID,21.0844,VALID,298,VALID,0,
2016-01-16, 08:45:04,VALID,918.518,VALID,0,VALID,103.595,VALID,224.659,VALID,21.1234,VALID,305,VALID,0,
2016-01-16, 08:46:04,VALID,918.493,VALID,0,VALID,103.564,VALID,228.205,VALID,21.2031,VALID,280,VALID,0,
2016-01-16, 08:47:04,VALID,918.49,VALID,0,VALID,103.556,VALID,234.007,VALID,21.2405,VALID,277,VALID,0,
2016-01-16, 08:48:04,VALID,918.463,VALID,0,VALID,103.549,VALID,241.205,VALID,21.299,VALID,277,VALID,0,
2016-01-16, 08:49:04,VALID,918.47,VALID,0,VALID,103.602,VALID,248.726,VALID,21.26,VALID,275,VALID,0,
2016-01-16, 08:50:04,VALID,918.46,VALID,0,VALID,103.648,VALID,258.074,VALID,21.2795,VALID,272,VALID,0,
2016-01-16, 08:51:04,VALID,918.416,VALID,0,VALID,103.625,VALID,265.487,VALID,21.3575,VALID,309,VALID,0,
2016-01-16, 08:52:04,VALID,918.458,VALID,0,VALID,103.572,VALID,279.669,VALID,21.4941,VALID,308,VALID,0,
2016-01-16, 08:53:04,VALID,918.399,VALID,0,VALID,103.534,VALID,284.827,VALID,21.5705,VALID,308,VALID,0,
2016-01-16, 08:54:04,VALID,918.416,VALID,0,VALID,103.617,VALID,285.149,VALID,21.6306,VALID,299,VALID,0,
2016-01-16, 08:55:04,VALID,918.442,VALID,0,VALID,103.778,VALID,282.678,VALID,21.4746,VALID,299,VALID,0,
2016-01-16, 08:56:04,VALID,918.41,VALID,0,VALID,103.854,VALID,296.43,VALID,21.4355,VALID,313,VALID,0,
2016-01-16, 08:57:04,VALID,918.414,VALID,0,VALID,103.884,VALID,301.587,VALID,21.4746,VALID,313,VALID,0.838672,
2016-01-16, 08:58:04,VALID,918.414,VALID,0,VALID,103.991,VALID,304.166,VALID,21.455,VALID,309,VALID,0,
2016-01-16, 08:59:04,VALID,918.409,VALID,0,VALID,103.953,VALID,306.1,VALID,21.4941,VALID,264,VALID,0,
2016-01-16, 09:00:04,VALID,918.448,VALID,0,VALID,103.93,VALID,308.571,VALID,21.5509,VALID,264,VALID,0,
2016-01-16, 09:01:04,VALID,918.458,VALID,0,VALID,104,VALID,314.48,VALID,21.5331,VALID,291,VALID,0,
2016-01-16, 09:02:04,VALID,918.476,VALID,0,VALID,104,VALID,324.15,VALID,21.5916,VALID,271,VALID,0,
2016-01-16, 09:03:04,VALID,918.502,VALID,0,VALID,104,VALID,344.349,VALID,21.6501,VALID,269,VALID,0,
2016-01-16, 09:04:04,VALID,918.507,VALID,0,VALID,104,VALID,401.615,VALID,21.59,VALID,267,VALID,0,
2016-01-16, 09:05:04,VALID,918.509,VALID,0,VALID,104,VALID,420.417,VALID,21.6095,VALID,255,VALID,0,
2016-01-16, 09:06:04,VALID,918.556,VALID,0,VALID,104,VALID,426.864,VALID,21.6095,VALID,251,VALID,0,
2016-01-16, 09:07:04,VALID,918.58,VALID,0,VALID,104,VALID,486.816,VALID,21.629,VALID,251,VALID,0,
2016-01-16, 09:08:04,VALID,918.595,VALID,0,VALID,104,VALID,433.418,VALID,21.6485,VALID,251,VALID,0,
2016-01-16, 09:09:04,VALID,918.607,VALID,0,VALID,104,VALID,334.787,VALID,21.7655,VALID,251,VALID,0,
2016-01-16, 09:10:04,VALID,918.604,VALID,0,VALID,104,VALID,330.167,VALID,21.9606,VALID,253,VALID,0,
2016-01-16, 09:11:04,VALID,918.629,VALID,0,VALID,104,VALID,321.571,VALID,22.0191,VALID,358,VALID,0,
2016-01-16, 09:12:04,VALID,918.628,VALID,0,VALID,104,VALID,314.158,VALID,22.1574,VALID,346,VALID,0,
2016-01-16, 09:13:04,VALID,918.636,VALID,0,VALID,104,VALID,308.893,VALID,22.2728,VALID,346,VALID,0,
2016-01-16, 09:14:04,VALID,918.625,VALID,0,VALID,104,VALID,303.736,VALID,22.3135,VALID,268,VALID,0,
2016-01-16, 09:15:04,VALID,918.638,VALID,0,VALID,104,VALID,300.835,VALID,22.294,VALID,268,VALID,0,
2016-01-16, 09:16:04,VALID,918.646,VALID,0,VALID,104,VALID,301.91,VALID,22.333,VALID,268,VALID,0,
2016-01-16, 09:17:04,VALID,918.677,VALID,0,VALID,104,VALID,302.447,VALID,22.4323,VALID,268,VALID,0,
2016-01-16, 09:18:04,VALID,918.701,VALID,0,VALID,104,VALID,305.133,VALID,22.5281,VALID,268,VALID,0,
2016-01-16, 09:19:04,VALID,918.687,VALID,0,VALID,104,VALID,306.852,VALID,22.5672,VALID,321,VALID,0,
2016-01-16, 09:20:04,VALID,918.71,VALID,0,VALID,104,VALID,306.744,VALID,22.6257,VALID,294,VALID,0,
2016-01-16, 09:21:04,VALID,918.726,VALID,0,VALID,104,VALID,305.992,VALID,22.7038,VALID,294,VALID,0,
2016-01-16, 09:22:04,VALID,918.717,VALID,0,VALID,104,VALID,308.571,VALID,22.7411,VALID,281,VALID,0,
2016-01-16, 09:23:04,VALID,918.707,VALID,0,VALID,104,VALID,312.869,VALID,22.8404,VALID,340,VALID,0,
2016-01-16, 09:24:04,VALID,918.695,VALID,0,VALID,104,VALID,319.96,VALID,22.9575,VALID,340,VALID,0,
2016-01-16, 09:25:04,VALID,918.735,VALID,0,VALID,104,VALID,328.018,VALID,23.0143,VALID,332,VALID,0,
2016-01-16, 09:26:04,VALID,918.709,VALID,0,VALID,104,VALID,338.01,VALID,22.8794,VALID,274,VALID,0.254297,
2016-01-16, 09:27:04,VALID,918.694,VALID,0,VALID,104,VALID,343.704,VALID,22.9167,VALID,273,VALID,0.00429688,
2016-01-16, 09:28:04,VALID,918.701,VALID,0,VALID,104,VALID,336.613,VALID,22.8794,VALID,263,VALID,0.100391,
2016-01-16, 09:29:04,VALID,918.688,VALID,0,VALID,104,VALID,331.993,VALID,22.977,VALID,263,VALID,0,
2016-01-16, 09:30:04,VALID,918.699,VALID,0,VALID,104,VALID,332.853,VALID,23.0959,VALID,258,VALID,0,
2016-01-16, 09:31:04,VALID,918.686,VALID,0,VALID,103.816,VALID,336.721,VALID,23.1314,VALID,259,VALID,0,
2016-01-16, 09:32:04,VALID,918.665,VALID,0,VALID,100.69,VALID,342.522,VALID,22.9575,VALID,269,VALID,0,
2016-01-16, 09:33:04,VALID,918.693,VALID,0,VALID,101.353,VALID,341.126,VALID,22.8404,VALID,305,VALID,0,
2016-01-16, 09:34:04,VALID,918.695,VALID,0,VALID,101.407,VALID,338.117,VALID,22.6843,VALID,290,VALID,0.376172,
2016-01-16, 09:35:04,VALID,918.703,VALID,0,VALID,103.145,VALID,339.299,VALID,22.663,VALID,290,VALID,0,
2016-01-16, 09:36:04,VALID,918.686,VALID,0,VALID,102.184,VALID,343.489,VALID,22.624,VALID,274,VALID,0.773047,
2016-01-16, 09:37:04,VALID,918.726,VALID,0,VALID,101.216,VALID,346.498,VALID,22.5264,VALID,296,VALID,1.2918,
2016-01-16, 09:38:04,VALID,918.685,VALID,0,VALID,100.98,VALID,348.647,VALID,22.3916,VALID,288,VALID,0.790625,
2016-01-16, 09:39:04,VALID,918.648,VALID,0,VALID,102.131,VALID,346.068,VALID,22.333,VALID,294,VALID,0.702344,
2016-01-16, 09:40:04,VALID,918.644,VALID,0,VALID,103.419,VALID,342.093,VALID,22.3899,VALID,6,VALID,1.025,
2016-01-16, 09:41:04,VALID,918.605,VALID,0,VALID,103.671,VALID,350.151,VALID,22.5477,VALID,6,VALID,0,
2016-01-16, 09:42:04,VALID,918.62,VALID,0,VALID,104,VALID,358.531,VALID,22.7216,VALID,348,VALID,0,
2016-01-16, 09:43:04,VALID,918.605,VALID,0,VALID,103.717,VALID,357.994,VALID,22.8387,VALID,310,VALID,0,
2016-01-16, 09:44:04,VALID,918.55,VALID,0,VALID,101.178,VALID,353.481,VALID,22.8582,VALID,310,VALID,0,
2016-01-16, 09:45:04,VALID,918.584,VALID,0,VALID,100.82,VALID,350.473,VALID,22.8191,VALID,291,VALID,0,
2016-01-16, 09:46:04,VALID,918.564,VALID,0,VALID,100.37,VALID,348.539,VALID,22.7606,VALID,275,VALID,0,
2016-01-16, 09:47:04,VALID,918.572,VALID,0,VALID,100.515,VALID,347.142,VALID,22.7801,VALID,302,VALID,0,
2016-01-16, 09:48:04,VALID,918.527,VALID,0,VALID,99.5694,VALID,343.382,VALID,22.7801,VALID,285,VALID,0,
2016-01-16, 09:49:04,VALID,918.54,VALID,0,VALID,99.8134,VALID,339.621,VALID,22.8191,VALID,282,VALID,0,
2016-01-16, 09:50:04,VALID,918.525,VALID,0,VALID,100.926,VALID,339.407,VALID,22.9557,VALID,16,VALID,0,
2016-01-16, 09:51:04,VALID,918.505,VALID,0,VALID,100.682,VALID,341.555,VALID,23.0924,VALID,14,VALID,0,
2016-01-16, 09:52:04,VALID,918.502,VALID,0,VALID,99.7981,VALID,342.522,VALID,23.1899,INVALID,360,VALID,0,
2016-01-16, 09:53:04,VALID,918.484,VALID,0,VALID,97.6407,VALID,333.068,VALID,23.268,VALID,354,VALID,0,
2016-01-16, 09:54:04,VALID,918.491,VALID,0,VALID,87.6159,VALID,326.514,VALID,23.3656,VALID,349,VALID,0,
2016-01-16, 09:55:04,VALID,918.508,VALID,0,VALID,87.0975,VALID,320.712,VALID,23.3869,VALID,331,VALID,0,
2016-01-16, 09:56:04,VALID,918.467,VALID,0,VALID,94.416,VALID,319.53,VALID,23.3656,VALID,3,VALID,0,
2016-01-16, 09:57:04,VALID,918.494,VALID,0,VALID,96.4972,VALID,319.745,VALID,23.4046,VALID,9,VALID,0,
2016-01-16, 09:58:04,VALID,918.491,VALID,0,VALID,97.069,VALID,320.175,VALID,23.5217,VALID,358,VALID,0,
2016-01-16, 09:59:04,VALID,918.513,VALID,0,VALID,95.7349,VALID,323.29,VALID,23.6388,VALID,354,VALID,0,
2016-01-16, 10:00:04,VALID,918.538,VALID,0,VALID,88.6984,VALID,326.299,VALID,23.7169,VALID,356,VALID,0,
2016-01-16, 10:01:04,VALID,918.548,VALID,0,VALID,87.9437,VALID,323.076,VALID,23.756,VALID,16,VALID,0,
2016-01-16, 10:02:04,VALID,918.545,VALID,0,VALID,86.8155,VALID,318.778,VALID,23.7755,VALID,318,VALID,0,
2016-01-16, 10:03:04,VALID,918.557,VALID,0,VALID,86.9756,VALID,316.629,VALID,23.7932,VALID,318,VALID,0,
2016-01-16, 10:04:04,VALID,918.548,VALID,0,VALID,85.3975,VALID,316.307,VALID,23.8145,VALID,317,VALID,0,
2016-01-16, 10:05:04,VALID,918.584,VALID,0,VALID,86.5258,VALID,316.307,VALID,23.8536,VALID,320,VALID,0,
2016-01-16, 10:06:04,VALID,918.586,VALID,0,VALID,84.437,VALID,316.844,VALID,23.7755,VALID,317,VALID,0,
2016-01-16, 10:07:04,VALID,918.581,VALID,0,VALID,85.893,VALID,318.67,VALID,23.7169,VALID,258,VALID,0,
2016-01-16, 10:08:04,VALID,918.576,VALID,0,VALID,85.1688,VALID,320.497,VALID,23.6193,VALID,256,VALID,0,
2016-01-16, 10:09:04,VALID,918.583,VALID,0,VALID,86.0531,VALID,322.323,VALID,23.5235,VALID,255,VALID,0,
2016-01-16, 10:10:04,VALID,918.555,VALID,0,VALID,90.6805,VALID,326.514,VALID,23.4809,VALID,256,VALID,0,
2016-01-16, 10:11:04,VALID,918.584,VALID,0,VALID,90.5281,VALID,331.456,VALID,23.559,VALID,256,VALID,0,
2016-01-16, 10:12:04,VALID,918.614,VALID,0,VALID,83.1791,VALID,337.473,VALID,23.5608,VALID,285,VALID,0,
2016-01-16, 10:13:04,VALID,918.585,VALID,0,VALID,85.5957,VALID,344.134,VALID,23.4437,VALID,296,VALID,0,
2016-01-16, 10:14:04,VALID,918.568,VALID,0,VALID,85.0621,VALID,351.01,VALID,23.4241,VALID,348,VALID,0,
2016-01-16, 10:15:04,VALID,918.556,VALID,0,VALID,85.954,VALID,358.209,VALID,23.4259,VALID,348,VALID,0,
2016-01-16, 10:16:04,VALID,918.578,VALID,0,VALID,87.6693,VALID,364.44,VALID,23.5235,VALID,351,VALID,0,
2016-01-16, 10:17:04,VALID,918.562,VALID,0,VALID,82.4625,VALID,367.986,VALID,23.5821,VALID,350,VALID,0,
2016-01-16, 10:18:04,VALID,918.527,VALID,0,VALID,83.7966,VALID,368.416,VALID,23.6566,VALID,351,VALID,0,
2016-01-16, 10:19:04,VALID,918.512,VALID,0,VALID,81.136,VALID,365.407,VALID,23.756,VALID,29,VALID,0,
2016-01-16, 10:20:04,VALID,918.491,VALID,0,VALID,82.3329,VALID,362.614,VALID,23.8322,VALID,8,VALID,0.441406,
2016-01-16, 10:21:04,VALID,918.491,VALID,0,VALID,83.6746,VALID,360.25,VALID,24.0292,VALID,344,VALID,0.607422,
2016-01-16, 10:22:04,VALID,918.491,VALID,0,VALID,82.31,VALID,360.143,VALID,24.2031,VALID,356,VALID,0.694531,
2016-01-16, 10:23:04,VALID,918.502,VALID,0,VALID,78.8261,VALID,362.829,VALID,24.3611,VALID,3,VALID,0.144531,
2016-01-16, 10:24:04,VALID,918.472,VALID,0,VALID,79.6952,VALID,367.449,VALID,24.4002,VALID,5,VALID,0.582031,
2016-01-16, 10:25:04,VALID,918.467,VALID,0,VALID,79.1539,VALID,373.895,VALID,24.3026,VALID,306,VALID,0.214062,
2016-01-16, 10:26:04,VALID,918.48,VALID,0,VALID,81.075,VALID,377.763,VALID,24.3416,VALID,339,VALID,0.295703,
2016-01-16, 10:27:04,VALID,918.462,VALID,0,VALID,77.8351,VALID,382.813,VALID,24.3221,VALID,305,VALID,0.700391,
2016-01-16, 10:28:04,VALID,918.456,VALID,0,VALID,77.8579,VALID,382.92,VALID,24.1854,VALID,305,VALID,0.0628906,
2016-01-16, 10:29:04,VALID,918.428,VALID,0,VALID,76.966,VALID,380.019,VALID,24.0665,VALID,304,VALID,0.544922,
2016-01-16, 10:30:04,VALID,918.444,VALID,0,VALID,77.5606,VALID,378.73,VALID,23.8713,VALID,258,VALID,0,
2016-01-16, 10:31:04,VALID,918.444,VALID,0,VALID,81.2275,VALID,384.532,VALID,23.8322,VALID,258,VALID,0,
2016-01-16, 10:32:04,VALID,918.44,VALID,0,VALID,80.2136,VALID,410.21,VALID,23.8517,VALID,258,VALID,0,
2016-01-16, 10:33:04,VALID,918.462,VALID,0,VALID,79.1539,VALID,414.293,VALID,23.8731,VALID,309,VALID,0,
2016-01-16, 10:34:04,VALID,918.453,VALID,0,VALID,81.319,VALID,443.195,VALID,23.9902,VALID,308,VALID,0,
2016-01-16, 10:35:04,VALID,918.469,VALID,0,VALID,79.9391,VALID,495.948,VALID,24.125,INVALID,360,VALID,0,
2016-01-16, 10:36:04,VALID,918.48,VALID,0,VALID,77.3624,VALID,497.453,VALID,24.1836,VALID,257,VALID,0,
2016-01-16, 10:37:04,VALID,918.494,VALID,0,VALID,74.496,VALID,480.477,VALID,24.2421,VALID,258,VALID,0,
2016-01-16, 10:38:04,VALID,918.443,VALID,0,VALID,76.2875,VALID,476.179,VALID,24.2226,VALID,257,VALID,0,
2016-01-16, 10:39:04,VALID,918.437,VALID,0,VALID,75.0754,VALID,472.526,VALID,24.2226,VALID,257,VALID,0,
2016-01-16, 10:40:04,VALID,918.432,VALID,0,VALID,76.7221,VALID,477.898,VALID,24.3788,VALID,258,VALID,0,
2016-01-16, 10:41:04,VALID,918.434,VALID,0,VALID,76.4324,VALID,475.749,VALID,24.4569,VALID,258,VALID,0,
2016-01-16, 10:42:04,VALID,918.427,VALID,0,VALID,75.4794,VALID,478.006,VALID,24.5545,VALID,257,VALID,0,
2016-01-16, 10:43:04,VALID,918.429,VALID,0,VALID,76.257,VALID,484.882,VALID,24.6521,VALID,257,VALID,0,
2016-01-16, 10:44:04,VALID,918.444,VALID,0,VALID,75.8911,VALID,496.915,VALID,24.7497,VALID,258,VALID,0,
2016-01-16, 10:45:04,VALID,918.424,VALID,0,VALID,74.2749,VALID,516.255,VALID,24.8083,VALID,298,VALID,0,
2016-01-16, 10:46:04,VALID,918.396,VALID,0,VALID,73.6117,VALID,556.76,VALID,24.8492,VALID,295,VALID,0,
2016-01-16, 10:47:04,VALID,918.408,VALID,0,VALID,72.9942,VALID,592.323,VALID,24.7302,VALID,300,VALID,0,
2016-01-16, 10:48:04,VALID,918.378,VALID,0,VALID,75.5709,VALID,718.029,VALID,24.6912,VALID,302,VALID,0,
2016-01-16, 10:49:04,VALID,918.37,VALID,0,VALID,74.3588,VALID,582.438,VALID,24.8474,VALID,303,VALID,0,
2016-01-16, 10:50:04,VALID,918.356,VALID,0,VALID,74.3131,VALID,563.207,VALID,24.9255,VALID,277,VALID,0,
2016-01-16, 10:51:04,VALID,918.316,VALID,0,VALID,73.1619,VALID,530.974,VALID,24.945,VALID,294,VALID,0,
2016-01-16, 10:52:04,VALID,918.305,VALID,0,VALID,75.4947,VALID,487.353,VALID,24.984,INVALID,360,VALID,0,
2016-01-16, 10:53:04,VALID,918.32,VALID,0,VALID,72.5292,VALID,478.328,VALID,25.064,VALID,252,VALID,0,
2016-01-16, 10:54:04,VALID,918.287,VALID,0,VALID,70.3946,VALID,486.494,VALID,24.984,VALID,290,VALID,0.960547,
2016-01-16, 10:55:04,VALID,918.298,VALID,0,VALID,72.9408,VALID,484.022,VALID,24.9255,VALID,288,VALID,0.259766,
2016-01-16, 10:56:04,VALID,918.317,VALID,0,VALID,72.5063,VALID,494.767,VALID,24.9878,VALID,275,VALID,0,
2016-01-16, 10:57:04,VALID,918.273,VALID,0,VALID,72.5216,VALID,535.594,VALID,24.8102,VALID,292,VALID,0,
2016-01-16, 10:58:04,VALID,918.252,VALID,0,VALID,73.3754,VALID,567.182,VALID,24.8316,VALID,292,VALID,0,
2016-01-16, 10:59:04,VALID,918.234,VALID,0,VALID,73.4135,VALID,725.765,VALID,25.025,VALID,290,VALID,0,
2016-01-16, 11:00:04,VALID,918.225,VALID,0,VALID,73.8404,VALID,569.438,VALID,25.1226,VALID,287,VALID,0,
2016-01-16, 11:01:04,VALID,918.18,VALID,0,VALID,71.5381,VALID,596.513,VALID,25.2769,VALID,287,VALID,0,
2016-01-16, 11:02:04,VALID,918.213,VALID,0,VALID,72.026,VALID,557.62,VALID,25.5132,VALID,281,VALID,0,
2016-01-16, 11:03:04,VALID,918.208,VALID,0,VALID,72.8265,VALID,471.344,VALID,25.6284,VALID,295,VALID,0,
2016-01-16, 11:04:04,VALID,918.189,VALID,0,VALID,72.0184,VALID,451.683,VALID,25.5894,VALID,32,VALID,2.25703,
2016-01-16, 11:05:04,VALID,918.184,VALID,0,VALID,71.4467,VALID,586.306,VALID,25.5308,VALID,34,VALID,1.43203,
2016-01-16, 11:06:04,VALID,918.181,VALID,0,VALID,72.1861,VALID,693.318,VALID,25.5113,VALID,39,VALID,1.57031,
2016-01-16, 11:07:04,VALID,918.176,VALID,0,VALID,75.5709,VALID,497.99,VALID,25.6284,VALID,17,VALID,0,
2016-01-16, 11:08:04,VALID,918.153,VALID,0,VALID,75.4566,VALID,634.87,VALID,25.8042,VALID,339,VALID,0,
2016-01-16, 11:09:04,VALID,918.135,VALID,0,VALID,69.7238,VALID,618.216,VALID,25.982,VALID,331,VALID,0,
2016-01-16, 11:10:04,VALID,918.119,VALID,0,VALID,68.4811,VALID,604.571,VALID,25.8433,VALID,354,VALID,0,
2016-01-16, 11:11:04,VALID,918.114,VALID,0,VALID,72.2319,VALID,637.126,VALID,25.687,VALID,16,VALID,0,
2016-01-16, 11:12:04,VALID,918.094,VALID,0,VALID,71.8431,VALID,696.648,VALID,25.7066,VALID,18,VALID,0,
2016-01-16, 11:13:04,VALID,918.064,VALID,0,VALID,70.8139,VALID,694.07,VALID,25.8628,VALID,12,VALID,0,
2016-01-16, 11:14:04,VALID,918.085,VALID,0,VALID,70.5166,VALID,841.587,VALID,25.9409,VALID,316,VALID,0.489453,
2016-01-16, 11:15:04,VALID,918.071,VALID,0,VALID,69.6399,VALID,855.769,VALID,25.8999,VALID,348,VALID,0,
2016-01-16, 11:16:04,VALID,918.035,VALID,0,VALID,70.5242,VALID,549.991,VALID,25.9019,VALID,15,VALID,0,
2016-01-16, 11:17:04,VALID,918.001,VALID,0,VALID,68.5879,VALID,986.74,VALID,25.9975,VALID,318,VALID,0,